This demonstration page uses our WeatherBlox Daily Observations layout. Learn more.

Left ArrowRight Arrow

41.12389, -100.76542

Hourly Observations for March 17, 2018

Temp ( °F °C ) Dew Point ( °F °C ) Humidity (%) Winds ( mph kmh ) Pressure ( in mb ) Visibility ( mi km ) Precip ( " mm )
12:53 am 00:53 Cloudy 32 0 29 -1.7 88 88 NW 6 9 29.96 1015 10 16 0.00 0.00
1:53 am 01:53 Cloudy 32 0 28 -2.2 85 85 WNW 9 15 29.96 1015 10 16 0.00 0.00
2:53 am 02:53 Cloudy 30 -1.1 26 -3.3 85 85 NW 10 17 29.98 1015 10 16 0.00 0.00
3:15 am 03:15 Partly Cloudy 28 -2.2 24 -4.4 85 85 NW 9 15 30.03 1017 10 16 0.00 0.00
3:53 am 03:53 Mostly Cloudy 26 -3.3 22 -5.6 84 84 W 7 11 30.01 1016 10 16 0.00 0.00
4:38 am 04:38 Cloudy 29 -1.7 25 -3.9 85 85 NW 10 17 30.06 1018 10 16 0.00 0.00
4:53 am 04:53 Cloudy 28 -2.2 24 -4.4 85 85 NNW 8 13 30.00 1016 10 16 0.00 0.00
5:41 am 05:41 Partly Cloudy 24 -4.4 20 -6.7 84 84 NW 7 11 30.09 1019 10 16 0.00 0.00
5:53 am 05:53 Clear 25 -3.9 21 -6.1 85 85 NW 6 9 30.02 1017 10 16 0.00 0.00
6:53 am 06:53 Clear 23 -5 19 -7.2 85 85 WSW 7 11 30.04 1017 10 16 0.00 0.00
7:53 am 07:53 Sunny 22 -5.6 19 -7.2 89 89 Calm 30.05 1018 7 11 0.00 0.00
8:30 am 08:30 Partly Cloudy with Mist and Fog 21 -6.1 20 -6.7 96 96 W 3 6 30.18 1022 6 10 0.00 0.00
8:39 am 08:39 Mostly Cloudy 23 -5 19 -7.2 85 85 NW 5 7 30.18 1022 8 13 0.00 0.00
8:53 am 08:53 Cloudy 25 -3.9 23 -5 92 92 Calm 30.07 1018 9 14 0.00 0.00
9:53 am 09:53 Cloudy 27 -2.8 23 -5 85 85 NW 8 13 30.07 1018 10 16 0.00 0.00
10:53 am 10:53 Cloudy 28 -2.2 24 -4.4 85 85 NW 6 9 30.08 1019 10 16 0.00 0.00
11:53 am 11:53 Cloudy 30 -1.1 25 -3.9 82 82 NNE 5 7 30.07 1018 10 16 0.00 0.00
12:53 pm 12:53 Cloudy 32 0 28 -2.2 85 85 VRB 3 6 30.06 1018 10 16 0.00 0.00
1:53 pm 13:53 Partly Cloudy 39 3.9 32 0 76 76 Calm 30.03 1017 10 16 0.00 0.00
2:20 pm 14:20 Mostly Cloudy 40 4.4 34 1.1 79 79 S 5 7 30.03 1017 10 16 0.00 0.00
2:51 pm 14:51 Partly Cloudy 41 5 34 1 76 76 SE 6 9 30.03 1017 10 16 0.00 0.00
2:53 pm 14:53 Partly Cloudy 41 5 33 0.6 73 73 SE 6 9 30.01 1016 10 16 0.00 0.00
3:53 pm 15:53 Sunny 45 7.2 35 1.7 68 68 E 3 6 29.98 1015 10 16 0.00 0.00
4:53 pm 16:53 Sunny 48 8.9 36 2.2 63 63 SE 5 7 29.96 1014 10 16 0.00 0.00
5:53 pm 17:53 Sunny 50 10 36 2.2 59 59 E 8 13 29.95 1014 10 16 0.00 0.00
6:53 pm 18:53 Sunny 49 9.4 35 1.7 59 59 E 8 13 29.96 1014 10 16 0.00 0.00
7:53 pm 19:53 Clear 42 5.6 34 1.1 73 73 E 9 15 29.96 1015 10 16 0.00 0.00
8:53 pm 20:53 Clear 35 1.7 30 -1.1 82 82 E 8 13 29.98 1015 10 16 0.00 0.00
9:53 pm 21:53 Clear 35 1.7 31 -0.6 85 85 E 8 13 29.99 1016 10 16 0.00 0.00
10:53 pm 22:53 Clear 33 0.6 29 -1.7 85 85 E 9 15 29.98 1015 10 16 0.00 0.00
11:53 pm 23:53 Clear 32 0 29 -1.7 88 88 ESE 9 15 29.99 1016 10 16 0.00 0.00

Powered by AerisWeather